Torna al catalogo

TIANMU-1 04

AttivoMilitareSSO
NORAD 55974·PAYLOAD·🇨🇳 China

Lanciato Mar 22, 2023 da Jiuquan Satellite Launch Center

Loading…

Prossimi Passaggi (prossime 24 ore)

TLE

AggiornatoSource: Space-Track

Epoca: Sep 14, 2026, 13:40 UTC

1 55974U 23039B   26257.56956725  .00012626  00000-0  22467-3 0  9995
2 55974  97.5199  74.3943 0004787 113.3224 246.8531 15.50283182194686

Traccia TIANMU-1 04 in tempo reale con AllMySat

Download on the App Store